Change the Weather History Date:

Friday, October 26, 2012

  Actual Average Record
Temperature  
Mean Temperature 27 °F -  
Max Temperature 28 °F 9 °F 33 °F (2006)
Min Temperature 26 °F -3 °F 1 °F (2014)
Degree Days  
Heating Degree Days 38    
Moisture  
Dew Point 25 °F    
Average Humidity 94    
Maximum Humidity 100    
Minimum Humidity 74    
Precipitation  
Precipitation 0.00 in 0.03 in - ()
Sea Level Pressure  
Sea Level Pressure 30.00 in    
Wind  
Wind Speed 19 mph ()    
Max Wind Speed 29 mph    
Max Gust Speed 33 mph    
Visibility 4.6 miles    
Events Snow    
Averages and records for this station are not official NWS values.
T = Trace of Precipitation, MM = Missing Value Source: Averaged Metar Reports

Daily Weather History Graph

Daily Weather History Graph

Search for Another Location

Airport or City:

Trip Planner

Search our weather history database for the weather conditions in past years. The results will help you decide how hot, cold, wet, or windy it might be!

Date:

Astronomy

Oct. 26, 2012 Rise Set
Actual Time 9:42 AM ADT 4:51 PM ADT
Civil Twilight 8:31 AM ADT 6:03 PM ADT
Nautical Twilight 7:16 AM ADT 7:17 PM ADT
Astronomical Twilight 6:04 AM ADT 8:29 PM ADT
Moon 4:20 PM ADT (10/26) 5:04 AM ADT (10/26)
Length of Visible Light 9h 32m
Length of Day
7h 08m
Waxing Gibbous, 90% of the Moon is Illuminated
Oct 26
Waxing Gibbous
Oct 29
Full
Nov 6
Last Quarter
Nov 13
New
Nov 20
First Quarter

Hourly Weather History & Observations

Time (ADT) Temp. Windchill Dew Point Humidity Pressure Visibility Wind Dir Wind Speed Gust Speed Precip Events Conditions
12:00 AM 27 °F - 26 °F 97% 29.95 in 1 mi NW 26.5 mph - - Snow Light Snow
12:00 AM 26.6 °F 10.8 °F 26.6 °F 100% 29.95 in 0.6 mi NW 27.6 mph - N/A Snow Light Snow
12:11 AM 26.6 °F 11.1 °F 26.6 °F 100% 29.94 in 0.6 mi NW 26.5 mph 33.4 mph N/A Snow Light Snow
12:19 AM 26.6 °F 10.6 °F 26.6 °F 100% 29.94 in 1.0 mi NW 28.8 mph - N/A Snow Light Snow
12:31 AM 26.6 °F 10.8 °F 26.6 °F 100% 29.94 in 1.1 mi NW 27.6 mph - N/A Snow Light Snow
12:33 AM 26.6 °F 10.8 °F 26.6 °F 100% 29.94 in 1.1 mi NW 27.6 mph - N/A Snow Light Snow
12:58 AM 26.6 °F 11.1 °F 26.6 °F 100% 29.94 in 1.1 mi NW 26.5 mph - N/A Snow Light Snow
1:00 AM 26.6 °F 11.4 °F 26.6 °F 100% 29.96 in 1.1 mi NW 25.3 mph 31.1 mph N/A Snow Light Snow
1:45 AM 26.6 °F 11.7 °F 26.6 °F 100% 29.95 in 1.0 mi NW 24.2 mph - N/A Snow Light Snow
2:00 AM 26.6 °F 12.7 °F 26.6 °F 100% 29.96 in 1.4 mi NW 20.7 mph - N/A Snow Light Snow
2:08 AM 26.6 °F 12.0 °F 26.6 °F 100% 29.95 in 1.4 mi NW 23.0 mph - N/A Snow Light Snow
2:10 AM 26.6 °F 12.0 °F 26.6 °F 100% 29.95 in 1.5 mi NW 23.0 mph - N/A Snow Light Snow
2:27 AM 26.6 °F 12.0 °F 26.6 °F 100% 29.95 in 2.5 mi NW 23.0 mph - N/A   Overcast
2:29 AM 26.6 °F 12.0 °F 26.6 °F 100% 29.95 in 2.5 mi NW 23.0 mph - N/A   Overcast
2:37 AM 26.6 °F 11.4 °F 24.8 °F 93% 29.95 in 4.0 mi NW 25.3 mph - N/A   Overcast
2:38 AM 26.6 °F 11.7 °F 24.8 °F 93% 29.95 in 4.0 mi NW 24.2 mph - N/A Snow Light Snow
2:47 AM 26.6 °F 12.0 °F 26.6 °F 100% 29.95 in 2.5 mi NW 23.0 mph - N/A Snow Light Snow
3:00 AM 27 °F - 26 °F 94% 29.96 in 2 mi NW 23.0 mph - -   Overcast
3:04 AM 26.6 °F 11.4 °F 26.6 °F 100% 29.95 in 1.4 mi NW 25.3 mph - N/A Snow Light Snow
3:26 AM 26.6 °F 12.0 °F 26.6 °F 100% 29.96 in 2.1 mi NW 23.0 mph - N/A Snow Light Snow
3:42 AM 28.4 °F 14.7 °F 26.6 °F 93% 29.96 in 3.0 mi NW 21.9 mph - N/A Snow Light Snow
3:55 AM 28.4 °F 15.1 °F 26.6 °F 93% 29.97 in 5.0 mi NW 20.7 mph - N/A Snow Light Snow
3:58 AM 28.4 °F 14.7 °F 26.6 °F 93% 29.97 in 5.0 mi NW 21.9 mph - N/A   Unknown
4:00 AM 28.4 °F 14.4 °F 26.6 °F 93% 29.98 in 5.0 mi NW 23.0 mph - N/A   Unknown
4:05 AM 28.4 °F 15.8 °F 26.6 °F 93% 29.97 in 3.5 mi NW 18.4 mph 25.3 mph N/A Snow Light Snow
4:21 AM 28.4 °F 15.1 °F 26.6 °F 93% 29.97 in 4.0 mi NW 20.7 mph - N/A   Mostly Cloudy
4:26 AM 26.6 °F 12.7 °F 26.6 °F 100% 29.97 in 3.5 mi NW 20.7 mph - N/A Snow Light Snow
4:28 AM 26.6 °F 12.7 °F 26.6 °F 100% 29.97 in 3.5 mi NW 20.7 mph - N/A Snow Light Snow
4:33 AM 26.6 °F 12.7 °F 26.6 °F 100% 29.97 in 3.0 mi NW 20.7 mph - N/A Snow Light Snow
4:37 AM 26.6 °F 12.4 °F 26.6 °F 100% 29.97 in 2.4 mi NW 21.9 mph - N/A Snow Light Snow
5:00 AM 26.6 °F 12.7 °F 26.6 °F 100% 29.98 in 2.1 mi NW 20.7 mph - N/A Snow Light Snow
6:00 AM 27 °F - 26 °F 92% 29.99 in 2 mi NW 18.4 mph - - Snow Light Snow
6:00 AM 26.6 °F 13.4 °F 24.8 °F 93% 29.99 in 2.5 mi NW 18.4 mph - N/A Snow Light Snow
6:05 AM 26.6 °F 13.4 °F 24.8 °F 93% 29.98 in 2.5 mi NW 18.4 mph - N/A Snow Light Snow
6:12 AM 26.6 °F 14.3 °F 24.8 °F 93% 29.98 in 4.0 mi NW 16.1 mph - N/A Snow Light Snow
6:22 AM 26.6 °F 13.8 °F 24.8 °F 93% 29.98 in 4.0 mi NW 17.3 mph - N/A Snow Light Snow
6:27 AM 28.4 °F 16.2 °F 24.8 °F 86% 29.98 in 5.0 mi WNW 17.3 mph - N/A   Mostly Cloudy
6:32 AM 26.6 °F 13.8 °F 24.8 °F 93% 29.98 in 6.0 mi WNW 17.3 mph - N/A Snow Light Snow
6:47 AM 26.6 °F 13.8 °F 24.8 °F 93% 29.98 in 2.4 mi WNW 17.3 mph - N/A Snow Light Snow
6:50 AM 26.6 °F 13.8 °F 24.8 °F 93% 29.98 in 2.0 mi WNW 17.3 mph - N/A Snow Light Snow
7:00 AM 26.6 °F 14.3 °F 24.8 °F 93% 29.99 in 1.6 mi NW 16.1 mph - N/A Snow Light Snow
7:25 AM 26.6 °F 13.8 °F 24.8 °F 93% 29.99 in 4.0 mi NW 17.3 mph - N/A Snow Light Snow
7:26 AM 26.6 °F 13.8 °F 24.8 °F 93% 29.99 in 4.0 mi NW 17.3 mph - N/A Snow Light Snow
8:00 AM 26.6 °F 16.8 °F 24.8 °F 93% 30.01 in 4.0 mi WNW 10.4 mph - N/A Snow Light Snow
8:16 AM 26.6 °F 16.8 °F 24.8 °F 93% 30.00 in 8.0 mi WNW 10.4 mph - N/A   Overcast
8:21 AM 26.6 °F 18.2 °F 24.8 °F 93% 30.00 in 9.0 mi West 8.1 mph - N/A Snow Light Snow
9:00 AM 27 °F - 25 °F 87% 30.03 in 9 mi WNW 11.5 mph - -   Overcast
9:00 AM 26.6 °F 16.2 °F 24.8 °F 93% 30.03 in 9.0 mi WNW 11.5 mph - N/A Snow Light Snow
9:39 AM 26.6 °F 16.8 °F 24.8 °F 93% 30.02 in 2.4 mi WNW 10.4 mph - N/A Snow Light Snow
9:54 AM 26.6 °F 15.7 °F 26.6 °F 100% 30.02 in 1.8 mi WNW 12.7 mph - N/A Snow Light Snow
10:00 AM 26.6 °F 17.5 °F 24.8 °F 93% 30.04 in 1.8 mi West 9.2 mph - N/A Snow Light Snow
10:14 AM 26.6 °F 20.0 °F 24.8 °F 93% 30.02 in 5.0 mi WSW 5.8 mph - N/A Snow Light Snow
10:17 AM 26.6 °F 20.0 °F 24.8 °F 93% 30.02 in 5.0 mi WSW 5.8 mph - N/A Snow Light Snow
10:30 AM 26.6 °F 19.1 °F 24.8 °F 93% 30.02 in 4.0 mi WSW 6.9 mph - N/A Snow Light Snow
10:49 AM 26.6 °F 20.0 °F 24.8 °F 93% 30.02 in 5.0 mi WSW 5.8 mph - N/A   Mostly Cloudy
11:00 AM 26.6 °F 20.0 °F 24.8 °F 93% 30.04 in 5.0 mi WSW 5.8 mph - N/A Snow Light Snow
12:00 PM 27 °F - 25 °F 90% 30.04 in 3 mi West 4.6 mph - - Snow Light Snow
12:00 PM 26.6 °F 21.2 °F 24.8 °F 93% 30.04 in 3.0 mi WSW 4.6 mph - N/A Snow Light Snow
1:00 PM 28.4 °F 17.5 °F 24.8 °F 86% 30.05 in 5.0 mi WNW 13.8 mph - N/A Snow Light Snow
2:00 PM 28.4 °F 17.0 °F 26.6 °F 93% 30.06 in 3.0 mi WNW 15.0 mph - N/A Snow Light Snow
3:00 PM 27 °F - 26 °F 94% 30.06 in 2 mi WNW 10.4 mph - -   Overcast
3:00 PM 26.6 °F 17.5 °F 26.6 °F 100% 30.06 in 2.5 mi WNW 9.2 mph - N/A Snow Light Snow
3:30 PM - - - N/A% - 15.0 mi WNW 15.0 mph - N/A   Unknown
4:00 PM 28.4 °F 17.0 °F 24.8 °F 86% 30.08 in 15.0 mi NW 15.0 mph - N/A Snow Low Drifting Snow
4:58 PM - - - N/A% - 10.0 mi NW 13.8 mph - N/A   Unknown
5:00 PM 28.4 °F 17.0 °F 24.8 °F 86% 30.08 in 10.0 mi NW 15.0 mph - N/A Snow Light Snow
6:00 PM 27 °F - 24 °F 82% 30.09 in 9 mi NW 13.8 mph - -   Overcast
6:00 PM 26.6 °F 15.2 °F 23.0 °F 86% 30.09 in 15.0 mi NW 13.8 mph - N/A Snow Light Snow
7:00 PM 26.6 °F 16.2 °F 23.0 °F 86% 30.10 in 15.0 mi NW 11.5 mph - N/A Snow Light Snow
8:00 PM 26.6 °F 18.2 °F 23.0 °F 86% 30.09 in 15.0 mi NW 8.1 mph - N/A Snow Light Snow
9:00 PM 27 °F - 22 °F 74% 30.09 in 9 mi NNW 10.4 mph - -   Overcast
9:00 PM 26.6 °F 16.8 °F 21.2 °F 80% 30.09 in 9.0 mi NNW 10.4 mph - N/A   Overcast
10:00 PM 26.6 °F 16.8 °F 21.2 °F 80% 30.10 in 9.0 mi NNW 10.4 mph - N/A   Overcast
11:00 PM 26.6 °F 19.1 °F 21.2 °F 80% 30.11 in 9.0 mi NW 6.9 mph - N/A   Overcast